Content
SEND FEEDBACK

Daily
Averages
Monthly
Summary
Switzerland

GENEVA, SWITZERLAND


Home > Europe > Switzerland
Elevation: 415 meters     Latitude: 46 15N     Longitude: 006 08E

WEATHER
 
SELECT A DAY
Number of Records: 317,120;   Date Range: 7/1/96 - 12/17/14
 
SHARE

PRINT THIS DATA

[ ← Previous Day ]
WEATHER ALMANAC - 28 SEPTEMBER, 2013
[ Next Day → ]
[ °F ]   °C
Weather ElementAverageHighLow
Temperature16.9 °C21 °C (1:50 pm)13 °C (3:50 am)
Dewpoint15.2 °C17 °C (1:20 pm)12.2 °C (7:00 am)
Humidity89.2 %100 % (12:20 am)68 % (2:00 pm)
Barometer1010.2 hPa1013.2 hPa (12:20 am)1006.1 hPa (7:00 pm)
Wind Speed3.4 km/h11.1 km/h (3:50 pm)
Weather ElementAverage
Visibility8 km
Wind DirectionENE (60.3 °)

Weather ElementTotal
Precipitation---
Heating Degree Days1.3 (Base 18.3)
Growing Degree Days7 (Base 10)
Averaged from 65 records on 28 September, 2013
WEATHER CONDITIONS BREAKOUT
WIND DIRECTION BREAKOUT
WEATHER BY HOUR - 28 SEPTEMBER, 2013
[ °F ]   °C
Local TimeTemperatureDewpointHumidityBarometerVisibilityWind DirectionWind SpeedGust SpeedPrecipitationEventsConditions
12:20 AM15 °C15 °C100 %1013.2 hPaCalmClear
12:50 AM15 °C14 °C94 %1013.2 hPaCalmClear
1:00 AM14.4 °C13.3 °C91 %1012.9 hPaWNW (290°)3.7 km/h
1:20 AM14 °C14 °C100 %1013.2 hPaVariable1.9 km/hClear
1:50 AM14 °C14 °C100 %1013.2 hPaCalmClear
2:00 AM14.4 °C13.3 °C91 %1012.5 hPa16.1 kmEast (80°)1.9 km/hClear
2:20 AM14 °C14 °C100 %1013.2 hPaCalmClear
2:50 AM14 °C13 °C94 %1013.2 hPaCalmClear
3:00 AM13.9 °C13.3 °C93 %1012.5 hPaEast (90°)1.9 km/h
3:50 AM13 °C13 °C100 %1012.2 hPa9 kmCalm
4:00 AM13.9 °C12.8 °C92 %1012.5 hPaNW (320°)1.9 km/h
4:20 AM13 °C13 °C100 %1012.2 hPa8 kmCalm
4:50 AM13 °C13 °C100 %1012.2 hPa8 kmCalm
5:20 AM13 °C13 °C100 %1012.2 hPa8 kmCalm
5:50 AM13 °C13 °C100 %1012.2 hPa8 kmCalm
6:20 AM13 °C13 °C100 %1012.2 hPa6.9 kmCalmFogFog
6:50 AM13 °C13 °C100 %1012.2 hPa6 kmCalmScattered Clouds
7:00 AM13.3 °C12.2 °C90 %1011.9 hPaNorth (350°)1.9 km/h
7:20 AM13 °C13 °C100 %1012.2 hPa6 kmCalmFogPatches of Fog
7:50 AM13 °C13 °C100 %1012.2 hPa2.6 kmWest (270°)1.9 km/hFogPatches of Fog
8:00 AM13.3 °C12.8 °C94 %1011.5 hPa6.4 kmNNW (340°)3.7 km/hFogPatches of Fog
8:20 AM13 °C13 °C100 %1012.2 hPa6 kmVariable1.9 km/hOvercast
8:50 AM14 °C14 °C100 %1011.2 hPa6 kmCalmOvercast
9:00 AM14.4 °C13.3 °C91 %1011.2 hPaNorth (10°)3.7 km/h
9:20 AM15 °C15 °C100 %1011.2 hPa6.9 kmCalmOvercast
9:50 AM16 °C15 °C94 %1012.2 hPa9 kmCalmOvercast
10:00 AM16.1 °C14.4 °C85 %1011.2 hPaENE (70°)3.7 km/h
10:20 AM17 °C15 °C88 %1012.2 hPa10 kmVariable3.7 km/hMostly Cloudy
10:50 AM18 °C16 °C88 %1012.2 hPa10 kmVariable1.9 km/hMostly Cloudy
11:20 AM19 °C16 °C83 %1011.2 hPa10 kmVariable3.7 km/hMostly Cloudy
11:50 AM20 °C16 °C78 %1011.2 hPa6.9 kmVariable3.7 km/hMostly Cloudy
12:00 PM18.3 °C15 °C76 %1010.2 hPaENE (70°)5.6 km/h
12:20 PM19 °C16 °C83 %1011.2 hPa6.9 kmEast (80°)9.3 km/hOvercast
12:50 PM20 °C16 °C78 %1011.2 hPa6.9 kmEast (100°)7.4 km/hPartly Cloudy
1:00 PM18.9 °C15.6 °C75 %1009.8 hPaSE (130°)7.4 km/h
1:20 PM20 °C17 °C83 %1010.2 hPa6.9 kmVariable5.6 km/hScattered Clouds
1:50 PM21 °C17 °C78 %1010.2 hPa6.9 kmEast (90°)7.4 km/hMostly Cloudy
2:00 PM20 °C15.6 °C68 %1008.8 hPa6.4 kmEast (80°)7.4 km/hMist
2:20 PM20 °C16 °C78 %1010.2 hPa8 kmEast (80°)9.3 km/hMostly Cloudy
2:50 PM20 °C16 °C78 %1009.1 hPa6.9 kmEast (80°)9.3 km/hRainLight Rain Showers
3:00 PM19.4 °C16.1 °C75 %1008.1 hPaNNE (30°)9.3 km/h
3:20 PM20 °C17 °C83 %1009.1 hPa8 kmENE (70°)7.4 km/h
3:50 PM20 °C16 °C78 %1009.1 hPa9 kmNE (40°)11.1 km/h
4:00 PM20 °C16.1 °C71 %1007.5 hPaNNE (20°)7.4 km/h
4:20 PM20 °C17 °C83 %1008.1 hPa9 kmNE (40°)7.4 km/h
4:50 PM20 °C17 °C83 %1008.1 hPa9 kmNorth (360°)5.6 km/h
5:20 PM20 °C17 °C83 %1008.1 hPa9 kmVariable3.7 km/h
5:50 PM20 °C17 °C83 %1008.1 hPa9 kmVariable1.9 km/h
6:00 PM20 °C16.1 °C73 %1006.8 hPaESE (110°)1.9 km/h
6:20 PM20 °C17 °C83 %1008.1 hPa9 kmVariable3.7 km/h
6:50 PM20 °C17 °C83 %1007.1 hPa9 kmVariable1.9 km/h
7:00 PM19.4 °C16.7 °C79 %1006.1 hPaENE (70°)9.3 km/h
7:20 PM19 °C17 °C88 %1007.1 hPa9 kmEast (90°)7.4 km/h
7:50 PM19 °C17 °C88 %1007.1 hPa9 kmVariable1.9 km/h
8:00 PM18.3 °C16.1 °C83 %1006.4 hPa9.7 kmNE (50°)5.6 km/hMist
8:20 PM18 °C17 °C94 %1008.1 hPa9 kmVariable1.9 km/h
8:50 PM18 °C17 °C94 %1008.1 hPa8 kmVariable3.7 km/hMostly Cloudy
9:00 PM18.9 °C16.1 °C80 %1007.1 hPaWSW (240°)3.7 km/h
9:20 PM18 °C17 °C94 %1008.1 hPa8 kmVariable1.9 km/hMostly Cloudy
9:50 PM18 °C17 °C94 %1008.1 hPa8 kmVariable1.9 km/hMostly Cloudy
10:00 PM17.8 °C16.1 °C87 %1007.5 hPaWest (270°)1.9 km/h
10:20 PM17 °C17 °C100 %1008.1 hPa8 kmVariable3.7 km/hMostly Cloudy
10:50 PM17 °C17 °C100 %1008.1 hPa8 kmCalmMostly Cloudy
11:20 PM17 °C16 °C94 %1008.1 hPa6.9 kmVariable3.7 km/hScattered Clouds
11:50 PM16 °C16 °C100 %1008.1 hPa6 kmCalm
Hourly data recorded from LSGG, located 0 kilometers away from Geneva, Switzerland







STORIES FROM OUR PARTNERS